Year,Month,Day,Hour,Minute,Value (Times are PST for temperature in C)
2014,04,28,13,22,4.60
2014,04,28,13,23,4.60
2014,04,28,13,24,4.60
2014,04,28,13,25,4.60
2014,04,28,13,26,4.60
2014,04,28,13,27,4.60
2014,04,28,13,28,4.60
2014,04,28,13,29,4.60
2014,04,28,13,30,4.60
2014,04,28,13,31,4.50
2014,04,28,13,32,4.50
2014,04,28,13,33,4.50
2014,04,28,13,34,4.50
2014,04,28,13,35,4.50
2014,04,28,13,36,4.50
2014,04,28,13,37,4.50
2014,04,28,13,38,4.50
2014,04,28,13,39,4.50
2014,04,28,13,40,4.50
2014,04,28,13,41,4.50
2014,04,28,13,42,4.50
2014,04,28,13,43,4.50
2014,04,28,13,44,4.50
2014,04,28,13,45,4.50
2014,04,28,13,46,4.60
2014,04,28,13,47,4.60
2014,04,28,13,48,4.60
2014,04,28,13,49,4.60
2014,04,28,13,50,4.60
2014,04,28,13,51,4.60
2014,04,28,13,52,4.60
2014,04,28,13,53,4.60
2014,04,28,13,54,4.60
2014,04,28,13,55,4.60
2014,04,28,13,56,4.60
2014,04,28,13,57,4.60
2014,04,28,13,58,4.60
2014,04,28,13,59,4.60
2014,04,28,14,00,4.60
2014,04,28,14,01,4.40
2014,04,28,14,02,4.40
2014,04,28,14,03,4.40
2014,04,28,14,04,4.40
2014,04,28,14,05,4.40
2014,04,28,14,06,4.40
2014,04,28,14,07,4.40
2014,04,28,14,08,4.40
2014,04,28,14,09,4.40
2014,04,28,14,10,4.40
2014,04,28,14,11,4.40
2014,04,28,14,12,4.40
2014,04,28,14,13,4.40
2014,04,28,14,14,4.40
2014,04,28,14,15,4.40
2014,04,28,14,16,4.60
2014,04,28,14,17,4.60
2014,04,28,14,18,4.60
2014,04,28,14,19,4.60
2014,04,28,14,20,4.60
2014,04,28,14,21,4.60
2014,04,28,14,22,4.60
2014,04,28,14,23,4.60
2014,04,28,14,24,4.60
2014,04,28,14,25,4.60
2014,04,28,14,26,4.60
2014,04,28,14,27,4.60
2014,04,28,14,28,4.60
2014,04,28,14,29,4.60
2014,04,28,14,30,4.60
2014,04,28,14,31,4.60
2014,04,28,14,32,4.60
2014,04,28,14,33,4.60
2014,04,28,14,34,4.60
2014,04,28,14,35,4.60
2014,04,28,14,36,4.60
2014,04,28,14,37,4.60
2014,04,28,14,38,4.60
2014,04,28,14,39,4.60
2014,04,28,14,40,4.60
2014,04,28,14,41,4.60
2014,04,28,14,42,4.60
2014,04,28,14,43,4.60
2014,04,28,14,44,4.60
2014,04,28,14,45,4.60
2014,04,28,14,46,4.50
2014,04,28,14,47,4.50
2014,04,28,14,48,4.50
2014,04,28,14,49,4.50
2014,04,28,14,50,4.50
2014,04,28,14,51,4.50
2014,04,28,14,52,4.50
2014,04,28,14,53,4.50
2014,04,28,14,54,4.50
2014,04,28,14,55,4.50
2014,04,28,14,56,4.50
2014,04,28,14,57,4.50
2014,04,28,14,58,4.50
2014,04,28,14,59,4.50
2014,04,28,15,00,4.50
2014,04,28,15,01,4.40
2014,04,28,15,02,4.40
2014,04,28,15,03,4.40
2014,04,28,15,04,4.40
2014,04,28,15,05,4.40
2014,04,28,15,06,4.40
2014,04,28,15,07,4.40
2014,04,28,15,08,4.40
2014,04,28,15,09,4.40
2014,04,28,15,10,4.40
2014,04,28,15,11,4.40
2014,04,28,15,12,4.40
2014,04,28,15,13,4.40
2014,04,28,15,14,4.40
2014,04,28,15,15,4.40
2014,04,28,15,17,4.20
2014,04,28,15,18,4.20
2014,04,28,15,19,4.20
2014,04,28,15,20,4.20
2014,04,28,15,21,4.20
2014,04,28,15,22,4.20
2014,04,28,15,23,4.20
2014,04,28,15,24,4.20
2014,04,28,15,25,4.20
2014,04,28,15,26,4.20
2014,04,28,15,27,4.20
2014,04,28,15,28,4.20
2014,04,28,15,29,4.20
2014,04,28,15,30,4.20
2014,04,28,15,31,3.90
2014,04,28,15,32,3.90
2014,04,28,15,33,3.90
2014,04,28,15,34,3.90
2014,04,28,15,35,3.90
2014,04,28,15,36,3.90
2014,04,28,15,37,3.90
2014,04,28,15,38,3.90
2014,04,28,15,39,3.90
2014,04,28,15,40,3.90
2014,04,28,15,41,3.90
2014,04,28,15,42,3.90
2014,04,28,15,43,3.90
2014,04,28,15,44,3.90
2014,04,28,15,45,3.90
2014,04,28,15,46,3.90
2014,04,28,15,47,4.10
2014,04,28,15,48,4.10
2014,04,28,15,49,4.10
2014,04,28,15,50,4.10
2014,04,28,15,51,4.10
2014,04,28,15,52,4.10
2014,04,28,15,53,4.10
2014,04,28,15,54,4.10
2014,04,28,15,55,4.10
2014,04,28,15,56,4.10
2014,04,28,15,57,4.10
2014,04,28,15,58,4.10
2014,04,28,15,59,4.10
2014,04,28,16,00,4.10
2014,04,28,16,01,3.90
2014,04,28,16,02,3.90
2014,04,28,16,03,3.90
2014,04,28,16,04,3.90
2014,04,28,16,05,3.90
2014,04,28,16,06,3.90
2014,04,28,16,07,3.90
2014,04,28,16,08,3.90
2014,04,28,16,09,3.90
2014,04,28,16,10,3.90
2014,04,28,16,11,3.90
2014,04,28,16,12,3.90
2014,04,28,16,13,3.90
2014,04,28,16,14,3.90
2014,04,28,16,15,3.90
2014,04,28,16,16,3.70
2014,04,28,16,17,3.70
2014,04,28,16,18,3.70
2014,04,28,16,19,3.70
2014,04,28,16,20,3.70
2014,04,28,16,21,3.70
2014,04,28,16,22,3.70
2014,04,28,16,23,3.70
2014,04,28,16,24,3.70
2014,04,28,16,25,3.70
2014,04,28,16,26,3.70
2014,04,28,16,27,3.70
2014,04,28,16,28,3.70
2014,04,28,16,29,3.70
2014,04,28,16,30,3.70
2014,04,28,16,31,3.60
2014,04,28,16,32,3.60
2014,04,28,16,33,3.60
2014,04,28,16,34,3.60
2014,04,28,16,35,3.60
2014,04,28,16,36,3.60
2014,04,28,16,37,3.60
2014,04,28,16,38,3.60
2014,04,28,16,39,3.60
2014,04,28,16,40,3.60
2014,04,28,16,41,3.60
2014,04,28,16,42,3.60
2014,04,28,16,43,3.60
2014,04,28,16,44,3.60
2014,04,28,16,45,3.60
2014,04,28,16,46,3.70
2014,04,28,16,47,3.70
2014,04,28,16,48,3.70
2014,04,28,16,49,3.70
2014,04,28,16,50,3.70
2014,04,28,16,51,3.70
2014,04,28,16,52,3.70
2014,04,28,16,53,3.70
2014,04,28,16,54,3.70
2014,04,28,16,55,3.70
2014,04,28,16,56,3.70
2014,04,28,16,57,3.70
2014,04,28,16,58,3.70
2014,04,28,16,59,3.70
2014,04,28,17,00,3.70
2014,04,28,17,01,3.40
2014,04,28,17,02,3.40
2014,04,28,17,03,3.40
2014,04,28,17,04,3.40
2014,04,28,17,05,3.40
2014,04,28,17,06,3.40
2014,04,28,17,07,3.40
2014,04,28,17,08,3.40
2014,04,28,17,09,3.40
2014,04,28,17,10,3.40
2014,04,28,17,11,3.40
2014,04,28,17,12,3.40
2014,04,28,17,13,3.40
2014,04,28,17,14,3.40
2014,04,28,17,15,3.40
2014,04,28,17,16,3.40
2014,04,28,17,17,3.70
2014,04,28,17,18,3.70
2014,04,28,17,19,3.70
2014,04,28,17,20,3.70
2014,04,28,17,21,3.70
2014,04,28,17,22,3.70
2014,04,28,17,23,3.70
2014,04,28,17,24,3.70
2014,04,28,17,25,3.70
2014,04,28,17,26,3.70
2014,04,28,17,27,3.70
2014,04,28,17,28,3.70
2014,04,28,17,29,3.70
2014,04,28,17,30,3.70
2014,04,28,17,31,3.40
2014,04,28,17,32,3.40
2014,04,28,17,33,3.40
2014,04,28,17,34,3.40
2014,04,28,17,35,3.40
2014,04,28,17,36,3.40
2014,04,28,17,37,3.40
2014,04,28,17,38,3.40
2014,04,28,17,39,3.40
2014,04,28,17,40,3.40
2014,04,28,17,41,3.40
2014,04,28,17,42,3.40
2014,04,28,17,43,3.40
2014,04,28,17,44,3.40
2014,04,28,17,45,3.40
2014,04,28,17,46,3.60
2014,04,28,17,47,3.60
2014,04,28,17,48,3.60
2014,04,28,17,49,3.60
2014,04,28,17,50,3.60
2014,04,28,17,51,3.60
2014,04,28,17,52,3.60
2014,04,28,17,53,3.60
2014,04,28,17,54,3.60
2014,04,28,17,55,3.60
2014,04,28,17,56,3.60
2014,04,28,17,57,3.60
2014,04,28,17,58,3.60
2014,04,28,17,59,3.60
2014,04,28,18,00,3.60
2014,04,28,18,01,3.40
2014,04,28,18,02,3.40
2014,04,28,18,03,3.40
2014,04,28,18,04,3.40
2014,04,28,18,05,3.40
2014,04,28,18,06,3.40
2014,04,28,18,07,3.40
2014,04,28,18,08,3.40
2014,04,28,18,09,3.40
2014,04,28,18,10,3.40
2014,04,28,18,11,3.40
2014,04,28,18,12,3.40
2014,04,28,18,13,3.40
2014,04,28,18,14,3.40
2014,04,28,18,15,3.40
2014,04,28,18,16,3.10
2014,04,28,18,17,3.10
2014,04,28,18,18,3.10
2014,04,28,18,19,3.10
2014,04,28,18,20,3.10
2014,04,28,18,21,3.10
2014,04,28,18,22,3.10
2014,04,28,18,23,3.10
2014,04,28,18,24,3.10
2014,04,28,18,25,3.10
2014,04,28,18,26,3.10
2014,04,28,18,27,3.10
2014,04,28,18,28,3.10
2014,04,28,18,29,3.10
2014,04,28,18,30,3.10
2014,04,28,18,31,3.00
2014,04,28,18,32,3.00
2014,04,28,18,33,3.00
2014,04,28,18,34,3.00
2014,04,28,18,35,3.00
2014,04,28,18,36,3.00
2014,04,28,18,37,3.00
2014,04,28,18,38,3.00
2014,04,28,18,39,3.00
2014,04,28,18,40,3.00
2014,04,28,18,41,3.00
2014,04,28,18,42,3.00
2014,04,28,18,43,3.00
2014,04,28,18,44,3.00
2014,04,28,18,45,3.00
2014,04,28,18,46,2.90
2014,04,28,18,47,2.90
2014,04,28,18,48,2.90
2014,04,28,18,49,2.90
2014,04,28,18,50,2.90
2014,04,28,18,51,2.90
2014,04,28,18,52,2.90
2014,04,28,18,53,2.90
2014,04,28,18,54,2.90
2014,04,28,18,55,2.90
2014,04,28,18,56,2.90
2014,04,28,18,57,2.90
2014,04,28,18,58,2.90
2014,04,28,18,59,2.90
2014,04,28,19,00,2.90
2014,04,28,19,01,2.90
2014,04,28,19,02,2.90
2014,04,28,19,03,2.90
2014,04,28,19,04,2.90
2014,04,28,19,05,2.90
2014,04,28,19,06,2.90
2014,04,28,19,07,2.90
2014,04,28,19,08,2.90
2014,04,28,19,09,2.90
2014,04,28,19,10,2.90
2014,04,28,19,11,2.90
2014,04,28,19,12,2.90
2014,04,28,19,13,2.90
2014,04,28,19,14,2.90
2014,04,28,19,15,2.90
2014,04,28,19,17,2.90
2014,04,28,19,18,2.90
2014,04,28,19,19,2.90
2014,04,28,19,20,2.90
2014,04,28,19,21,2.90
2014,04,28,19,22,2.90
2014,04,28,19,23,2.90
2014,04,28,19,24,2.90
2014,04,28,19,25,2.90
2014,04,28,19,26,2.90
2014,04,28,19,27,2.90
2014,04,28,19,28,2.90
2014,04,28,19,29,2.90
2014,04,28,19,30,2.90
2014,04,28,19,31,2.90
2014,04,28,19,32,2.90
2014,04,28,19,33,2.90
2014,04,28,19,34,2.90
2014,04,28,19,35,2.90
2014,04,28,19,36,2.90
2014,04,28,19,37,2.90
2014,04,28,19,38,2.90
2014,04,28,19,39,2.90
2014,04,28,19,40,2.90
2014,04,28,19,41,2.90
2014,04,28,19,42,2.90
2014,04,28,19,43,2.90
2014,04,28,19,44,2.90
2014,04,28,19,45,2.90
2014,04,28,19,46,2.80
2014,04,28,19,47,2.80
2014,04,28,19,48,2.80
2014,04,28,19,49,2.80
2014,04,28,19,50,2.80
2014,04,28,19,51,2.80
2014,04,28,19,52,2.80
2014,04,28,19,53,2.80
2014,04,28,19,54,2.80
2014,04,28,19,55,2.80
2014,04,28,19,56,2.80
2014,04,28,19,57,2.80
2014,04,28,19,58,2.80
2014,04,28,19,59,2.80
2014,04,28,20,00,2.80
2014,04,28,20,01,2.70
2014,04,28,20,02,2.70
2014,04,28,20,03,2.70
2014,04,28,20,04,2.70
2014,04,28,20,05,2.70
2014,04,28,20,06,2.70
2014,04,28,20,07,2.70
2014,04,28,20,08,2.70
2014,04,28,20,09,2.70
2014,04,28,20,10,2.70
2014,04,28,20,11,2.70
2014,04,28,20,12,2.70
2014,04,28,20,13,2.70
2014,04,28,20,14,2.70
2014,04,28,20,15,2.70
2014,04,28,20,16,2.60
2014,04,28,20,17,2.60
2014,04,28,20,18,2.60
2014,04,28,20,19,2.60
2014,04,28,20,20,2.60
2014,04,28,20,21,2.60
2014,04,28,20,22,2.60
2014,04,28,20,23,2.60
2014,04,28,20,24,2.60
2014,04,28,20,25,2.60
2014,04,28,20,26,2.60
2014,04,28,20,27,2.60
2014,04,28,20,28,2.60
2014,04,28,20,29,2.60
2014,04,28,20,30,2.60
2014,04,28,20,31,2.50
2014,04,28,20,32,2.50
2014,04,28,20,33,2.50
2014,04,28,20,34,2.50
2014,04,28,20,35,2.50
2014,04,28,20,36,2.50
2014,04,28,20,37,2.50
2014,04,28,20,38,2.50
2014,04,28,20,39,2.50
2014,04,28,20,40,2.50
2014,04,28,20,41,2.50
2014,04,28,20,42,2.50
2014,04,28,20,43,2.50
2014,04,28,20,44,2.50
2014,04,28,20,45,2.50
2014,04,28,20,46,2.50
2014,04,28,20,47,2.60
2014,04,28,20,48,2.60
2014,04,28,20,49,2.60
2014,04,28,20,50,2.60
2014,04,28,20,51,2.60
2014,04,28,20,52,2.60
2014,04,28,20,53,2.60
2014,04,28,20,54,2.60
2014,04,28,20,55,2.60
2014,04,28,20,56,2.60
2014,04,28,20,57,2.60
2014,04,28,20,58,2.60
2014,04,28,20,59,2.60
2014,04,28,21,00,2.60
2014,04,28,21,01,2.80
2014,04,28,21,02,2.80
2014,04,28,21,03,2.80
2014,04,28,21,04,2.80
2014,04,28,21,05,2.80
2014,04,28,21,06,2.80
2014,04,28,21,07,2.80
2014,04,28,21,08,2.80
2014,04,28,21,09,2.80
2014,04,28,21,10,2.80
2014,04,28,21,11,2.80
2014,04,28,21,12,2.80
2014,04,28,21,13,2.80
2014,04,28,21,14,2.80
2014,04,28,21,15,2.80
2014,04,28,21,16,2.80
2014,04,28,21,17,2.70
2014,04,28,21,18,2.70
2014,04,28,21,19,2.70
2014,04,28,21,20,2.70
2014,04,28,21,21,2.70
2014,04,28,21,22,2.70
2014,04,28,21,23,2.70
2014,04,28,21,24,2.70
2014,04,28,21,25,2.70
2014,04,28,21,26,2.70
2014,04,28,21,27,2.70
2014,04,28,21,28,2.70
2014,04,28,21,29,2.70
2014,04,28,21,30,2.70
2014,04,28,21,31,2.70
2014,04,28,21,32,2.70
2014,04,28,21,33,2.70
2014,04,28,21,34,2.70
2014,04,28,21,35,2.70
2014,04,28,21,36,2.70
2014,04,28,21,37,2.70
2014,04,28,21,38,2.70
2014,04,28,21,39,2.70
2014,04,28,21,40,2.70
2014,04,28,21,41,2.70
2014,04,28,21,42,2.70
2014,04,28,21,43,2.70
2014,04,28,21,44,2.70
2014,04,28,21,45,2.70
2014,04,28,21,46,2.70
2014,04,28,21,47,2.70
2014,04,28,21,48,2.70
2014,04,28,21,49,2.70
2014,04,28,21,50,2.70
2014,04,28,21,51,2.70
2014,04,28,21,52,2.70
2014,04,28,21,53,2.70
2014,04,28,21,54,2.70
2014,04,28,21,55,2.70
2014,04,28,21,56,2.70
2014,04,28,21,57,2.70
2014,04,28,21,58,2.70
2014,04,28,21,59,2.70
2014,04,28,22,00,2.70
2014,04,28,22,01,2.70
2014,04,28,22,02,2.60
2014,04,28,22,03,2.60
2014,04,28,22,04,2.60
2014,04,28,22,05,2.60
2014,04,28,22,06,2.60
2014,04,28,22,07,2.60
2014,04,28,22,08,2.60
2014,04,28,22,09,2.60
2014,04,28,22,10,2.60
2014,04,28,22,11,2.60
2014,04,28,22,12,2.60
2014,04,28,22,13,2.60
2014,04,28,22,14,2.60
2014,04,28,22,15,2.60
2014,04,28,22,16,2.50
2014,04,28,22,17,2.50
2014,04,28,22,18,2.50
2014,04,28,22,19,2.50
2014,04,28,22,20,2.50
2014,04,28,22,21,2.50
2014,04,28,22,22,2.50
2014,04,28,22,23,2.50
2014,04,28,22,24,2.50
2014,04,28,22,25,2.50
2014,04,28,22,26,2.50
2014,04,28,22,27,2.50
2014,04,28,22,28,2.50
2014,04,28,22,29,2.50
2014,04,28,22,30,2.50
2014,04,28,22,31,2.50
2014,04,28,22,32,2.50
2014,04,28,22,33,2.50
2014,04,28,22,34,2.50
2014,04,28,22,35,2.50
2014,04,28,22,36,2.50
2014,04,28,22,37,2.50
2014,04,28,22,38,2.50
2014,04,28,22,39,2.50
2014,04,28,22,40,2.50
2014,04,28,22,41,2.50
2014,04,28,22,42,2.50
2014,04,28,22,43,2.50
2014,04,28,22,44,2.50
2014,04,28,22,45,2.50
2014,04,28,22,46,2.70
2014,04,28,22,47,2.70
2014,04,28,22,48,2.70
2014,04,28,22,49,2.70
2014,04,28,22,50,2.70
2014,04,28,22,51,2.70
2014,04,28,22,52,2.70
2014,04,28,22,53,2.70
2014,04,28,22,54,2.70
2014,04,28,22,55,2.70
2014,04,28,22,56,2.70
2014,04,28,22,57,2.70
2014,04,28,22,58,2.70
2014,04,28,22,59,2.70
2014,04,28,23,00,2.70
2014,04,28,23,01,2.70
2014,04,28,23,02,2.70
2014,04,28,23,03,2.70
2014,04,28,23,04,2.70
2014,04,28,23,05,2.70
2014,04,28,23,06,2.70
2014,04,28,23,07,2.70
2014,04,28,23,08,2.70
2014,04,28,23,09,2.70
2014,04,28,23,10,2.70
2014,04,28,23,11,2.70
2014,04,28,23,12,2.70
2014,04,28,23,13,2.70
2014,04,28,23,14,2.70
2014,04,28,23,15,2.70
2014,04,28,23,17,2.70
2014,04,28,23,18,2.70
2014,04,28,23,19,2.70
2014,04,28,23,20,2.70
2014,04,28,23,21,2.70
2014,04,28,23,22,2.70
2014,04,28,23,23,2.70
2014,04,28,23,24,2.70
2014,04,28,23,25,2.70
2014,04,28,23,26,2.70
2014,04,28,23,27,2.70
2014,04,28,23,28,2.70
2014,04,28,23,29,2.70
2014,04,28,23,30,2.70
2014,04,28,23,31,2.70
2014,04,28,23,32,2.70
2014,04,28,23,33,2.70
2014,04,28,23,34,2.70
2014,04,28,23,35,2.70
2014,04,28,23,36,2.70
2014,04,28,23,37,2.70
2014,04,28,23,38,2.70
2014,04,28,23,39,2.70
2014,04,28,23,40,2.70
2014,04,28,23,41,2.70
2014,04,28,23,42,2.70
2014,04,28,23,43,2.70
2014,04,28,23,44,2.70
2014,04,28,23,45,2.70
2014,04,28,23,46,2.60
2014,04,28,23,47,2.60
2014,04,28,23,48,2.60
2014,04,28,23,49,2.60
2014,04,28,23,50,2.60
2014,04,28,23,51,2.60
2014,04,28,23,52,2.60
2014,04,28,23,53,2.60
2014,04,28,23,54,2.60
2014,04,28,23,55,2.60
2014,04,28,23,56,2.60
2014,04,28,23,57,2.60
2014,04,28,23,58,2.60
2014,04,28,23,59,2.60
